Вернуться в каталог

TIANHUI 4A

АктивенНаукаPO
NORAD 50572·PAYLOAD·🇨🇳 China

Запущен Dec 29, 2021 с Jiuquan Satellite Launch Center

Loading…

Ближайшие Пролёты (ближайшие 24 часа)

TLE

СвежийSource: Space-Track

Эпоха: Sep 14, 2026, 22:40 UTC

1 50572U 21134A   26257.94492060  .00005443  00000-0  10491-3 0  9990
2 50572  88.9684 309.9432 0010960  77.3001 282.9484 15.47564929263749

Отслеживайте TIANHUI 4A в реальном времени с AllMySat

Download on the App Store